THORAD AGENA D DEB, 42498

Orbit data source: Space-Track

THORAD AGENA D DEB, 42498 is space debris in SSO originally from a launch on Wed, 08 Apr 1970 UTC launched from the Air Force Western Test Range (AFWTR). Debris objects in space refer to the collection of defunct objects orbiting the Earth. Examples of debris include non-operational satellites, rocket bodies, and fragments generated from explosions, collisions, or faulty payload assembly.

Loading next visibility...
THORAD AGENA D DEB details
Identifier
42498, 1970-025RC
Orbit
SSO
Last TLE update2 months ago
Origin
Flag of USNASA LeRC (US)
ManufacturerUnknown
MissionSpacecraft
Bus & MotorUnknown
MassUnknown
Launch date (UTC)
1970-04-08 (55 years ago)
Launch vehicleUnknown
Launch site
Air Force Western Test Range (AFWTR)
Object type
Payload
Rocket body
Debris
Shape & HBRUnknown
Radar Cross SectionSmall (<0.1 m²)

Expand to show TLE details & history

TLE from 2 months ago
0 THORAD AGENA D DEB
1 42498U 70025RC  24286.84901032  .00002051  00000-0  39953-2 0  9999
2 42498 100.5650 302.4299 0170625 282.6802  75.5293 13.32393861 75354
Epoch: 2024-10-12T20:22Z
Definitive object data (Epoch: 2024-10-12T20:22:34.491Z)
Latitude-0°
Longitude-25.11277°
Altitude1,110.493 km
Speed7.312 km/s
True Right ascension20h 09m 43s
True Declination0° 00' 00"
Sunlit
Object was in daylight at TLE epoch
Visualization TLE readout
Latitude-15.31747°
Longitude54.51944°
Altitude1,212.465 km
Speed7.213 km/s
Apparent Right ascension00h 24m 32s
Apparent Declination-27° 47' 20"
Sunlit
Object is in full shadow
Visualization observer readout
Local Sidereal Time10:47:40
Azimuth293.811° NW
Elevation-66.632°
Doppler factor1
Orbital elements
Apogee altitude1,263.312 km
Perigee altitude1,006.922 km
Semi-major axis7,513.254 km
Eccentricity0.0170625
Inclination100.565°
RAAN302.4299°
Arg. of periapsis282.6802°
True anomaly77.43228°
Mean anomaly75.5293°
Eccentric anomaly76.47982°
Mean motion3.33274 °/min
BSTAR0.0039953
Orbital period108.02 mins
Loading maneuver chart data...

THORAD AGENA D DEB Visibility forecast

Observer location: undefined°, undefined

Span
Click to sort rows by Start time (UTC) header in descending order
Start Az.
Max El. time (UTC)
Max El. Az.
Max El.
End time (UTC)
End Az.
11 mins2024-12-26 13:55:19.694Z28.369° NE2024-12-26 14:00:19.694Z95.736° ESE38.597°2024-12-26 14:06:19.694Z177.582° S
8 mins2024-12-26 15:43:19.694Z339.273° N2024-12-26 15:46:19.694Z302.437° NW22.965°2024-12-26 15:51:19.694Z247.97° W
10 mins2024-12-27 00:16:19.694Z121.252° SE2024-12-27 00:21:19.694Z60.664° ENE29.598°2024-12-27 00:26:19.694Z4.103° NNE
11 mins2024-12-27 02:02:19.694Z196.615° SSW2024-12-27 02:07:19.694Z258.288° W32.871°2024-12-27 02:13:19.694Z328.328° NNW
|